Location: Wavehorne
(51.0500°N, 0.8333°E)
Time: 19:56:21
(UTC+00:00)

NOSS 2-2 (C) - Pass Details

Date: 25 October 2021
Orbit: 450 x 1756 km, 63.3° (Epoch: 26 November)

Event Time Altitude Azimuth Distance (km) Brightness Sun altitude
Exits shadow 04:54:36 23° 248° (WSW) 1,933 5.5 -16.7°
Maximum altitude 04:55:07 23° 241° (WSW) 1,954 5.6 -16.6°
Drops below altitude 10° 05:00:36 10° 192° (SSW) 3,124 7.0 -15.7°
Sets 05:04:23 0° 180° (S) 4,331 7.9 -15.1°
